www.pogodaiklimat.ru

Погода и климат >> Архив погоды >> Аргентина >> Buenos Aires


ПОГОДА в Buenos Aires

  • Прогноз погоды в Buenos Aires
  • Монитор погоды в Buenos Aires
  • Климат города

АРХИВ ПОГОДЫ в Buenos Aires

Время (UTC), дата Ветер
(напр.,м/с)
 
Видим.   Явления Облачность Т
(С)
Тd
(С)
f
(%)
Тe
(С)
Тes
(С)
Комфортность P
(гПа)
Po
(гПа)
Тmin
(С)
Tmax
(С)
R
(мм)
R24
(мм)
S
(см)
18 16.10 С 5 10 км 5/0
[Ac cast Ci fib]
+26.8 +12.3 41 +28 +35 жарко 1012.1 1009.2
21 16.10 С 2 10 км 8/0
[Ac cast Ci fib]
+25.6 +14.9 52 +28 +30 жарко 1010.2 1007.3
00 17.10 СВ 1 10 км 9/0
[Ac As Cs]
+23.0 +16.9 69 +28 +28 душно 1011.1 1008.2 +19.6 +27.5
03 17.10 СЗ 1 10 км 3/0
[Ac As]
+22.6 +16.4 68 +27 +27 душно 1011.1 1008.2
06 17.10 СЗ 2 10 км 9/0
[Ac As]
+21.1 +16.5 75 +25 +25 комфорт 1010.8 1007.8
09 17.10 СЗ 1 10 км 9/0
[Ac As Cs]
+19.9 +17.1 84 +24 +24 комфорт 1011.5 1008.6
12 17.10 СЗ 1 10 км 9/0
[Ac As]
+21.4 +18.2 82 +26 +28 душно 1013.2 1010.2 +19.0 +23.0
15 17.10 С 5 10 км 10/0
[Ac As Cs]
+22.6 +18.7 79 +28 +34 душно 1012.7 1009.8
18 17.10 С 4 10 км 10/1 450 м
[Cu hum Ac As Cs]
+21.8 +19.0 84 +27 +31 душно 1010.9 1008.0
21 17.10 штиль 0 10 км 8/4 450 м
[Sc diur, vesp Cs]
+22.6 +17.8 74 +28 +29 душно 1009.3 1006.4
00 18.10 СЗ 4 10 км 6/6 600 м
[Sc]
+20.7 +18.3 86 +25 +25 комфорт 1011.5 1008.6 +20.7 +25.0
03 18.10 СЗ 1 10 км ясно +19.0 +18.4 96 +22 +22 комфорт 1011.8 1008.9
06 18.10 штиль 0 10 км 1/0
[Ci fib]
+17.6 +17.6 100 +18 +18 1010.1 1007.2
09 18.10 СВ 1 7000 м дымка 10/10 210 м
[St]
+18.8 +18.8 100 +21 +21 комфорт 1009.5 1006.6
12 18.10 С 2 10 км 10/8 270 м
[St Cs]
+19.6 +18.2 92 +23 +24 комфорт 1008.5 1005.6 +17.6 +20.7
15 18.10 В 2 10 км 10/4 300 м
[St Ac As]
+21.0 +17.8 82 +26 +29 душно 1007.6 1004.6
18 18.10 В 3 10 км 10/4 450 м
[Sc Cs]
+22.8 +18.1 75 +28 +34 душно 1004.5 1001.6
21 18.10 С 4 10 км 9/0
[Ac As Cs]
+22.4 +19.3 83 +28 +29 душно 1002.1 999.2
00 19.10 Ю 6 8000 м ливневой дождь, в посл. час гроза 10/5 450 м
[St As op]
+16.4 +15.7 96 +15 +15 1011.6 1008.6 +16.4 +23.7 7
03 19.10 Ю 1 10 км {дождь} 10/0
[Ac As]
+16.0 +15.1 94 +17 +17 1007.7 1004.8
06 19.10 Ю 2 10 км {дождь} 10/6 450 м
[St Ac As]
+16.2 +14.5 90 +16 +16 1011.9 1009.0 4
09 19.10 ЮВ 4 10 км 6/6 450 м
[St]
+12.8 +9.5 80 +11 +11 1013.8 1010.8
12 19.10 Ю 2 10 км 4/0
[Cs]
+14.6 +8.5 67 +15 +21 1017.5 1014.5 +11.8 +16.6 10
15 19.10 Ю 2 10 км ясно +19.3 +7.0 45 +20 +38 опасность
простуды
1019.1 1016.1
18 19.10 Ю 3 10 км ясно +20.6 +5.4 37 +22 +33 комфорт 1017.9 1014.9
21 19.10 СЗ 1 10 км ясно +19.2 +6.8 44 +21 +24 комфорт 1016.8 1013.8
00 20.10 В 1 10 км ясно +15.0 +8.1 63 +16 +16 1017.0 1014.0 +14.6 +22.1
03 20.10 В 3 10 км 3/0
[Cs]
+15.9 +10.3 69 +16 +16 1016.7 1013.7
06 20.10 С 4 10 км ясно +13.9 +8.6 70 +12 +12 1015.9 1012.9
09 20.10 СЗ 3 10 км 1/0
[Ci fib]
+13.5 +9.0 74 +13 +13 1015.5 1012.5
12 20.10 СЗ 4 10 км 1/0
[Cs]
+16.0 +11.4 74 +15 +19 1014.6 1011.6 +12.7 +16.4
15 20.10 СЗ 3 10 км 4/0
[Ac trans Ci fib]
+20.2 +13.3 65 +23 +36 комфорт 1013.0 1010.0
18 20.10 З 3 10 км 6/1 570 м
[Sc Ac cast Cs]
+24.8 +14.9 54 +28 +36 жарко 1009.7 1006.8
21 20.10 С 1 10 км 10/0
[Ac As]
+22.5 +14.3 60 +26 +27 жарко 1009.3 1006.2
00 21.10 В 2 10 км 10/0
[Ac As Cs]
+19.9 +15.2 74 +23 +23 комфорт 1010.5 1007.4 +16.0 +25.0
03 21.10 С 1 10 км 10/0
[Ac As Cs]
+19.1 +15.8 81 +22 +22 комфорт 1010.9 1008.0
06 21.10 С 1 10 км 3/0
[Ac As]
+16.3 +15.6 96 +17 +17 1010.2 1007.3
09 21.10 ЮВ 4 7000 м слабый дождь 10/5 360 м
[St As op]
+14.9 +13.5 91 +14 +14 1012.7 1009.7
12 21.10 ЮВ 7 10 км {дождь} 4/1 450 м
[Sc Ac As Cs]
+14.6 +9.6 72 +13 +14 1015.8 1012.8 +13.4 +20.7 0.1
15 21.10 Ю 6 10 км 4/3 900 м
[Cu hum Ci fib]
+18.4 +8.2 51 +18 +24 1017.5 1014.5
18 21.10 ЮВ 6 10 км 3/3 1050 м
[Cu hum]
+19.4 +7.1 45 +20 +23 1018.4 1015.4
21 21.10 Ю 2 10 км 1/1 1050 м
[Cu hum]
+17.6 +5.0 43 +18 +21 1018.8 1015.8
00 22.10 Ю 3 10 км слабая морось туман 10/3 450 м
[St As op]
+11.2 +10.0 92 +9 +9 1022.4 1019.4 +11.2 +20.4 2
03 22.10 ЮВ 3 10 км {морось} 9/8 500 м
[Cu Sc Ac As]
+10.6 +8.8 89 +8 +8 1024.1 1021.2
06 22.10 ЮВ 4 10 км {морось} 1/1 450 м
[Cu hum]
+9.8 +6.9 82 +7 +7 1023.1 1020.1 23
09 22.10 Ю 4 10 км 1/1 450 м
[Sc]
+8.3 +7.0 92 +5 +5 1023.7 1020.8
12 22.10 Ю 2 10 км 6/6 600 м
[Cu hum]
+11.3 +8.3 82 +10 +13 1025.1 1022.0 +8.1 +11.3 25
15 22.10 ЮВ 2 10 км ясно +16.2 +5.5 49 +17 +36 опасность
простуды
1024.6 1021.6
18 22.10 ЮВ 3 10 км ясно +17.9 +5.5 44 +18 +31 опасность
простуды
1023.1 1020.1
21 22.10 В 1 10 км ясно +16.2 +4.4 45 +17 +20 1021.9 1018.9
00 23.10 В 1 10 км ясно +12.8 +6.1 64 +13 +13 1022.7 1019.6 +11.3 +18.2
03 23.10 С 2 10 км 4/0
[Cs]
+13.4 +7.1 66 +13 +13 1022.1 1019.2
06 23.10 С 3 10 км 6/0
[Cs]
+12.4 +7.5 72 +11 +11 1021.8 1018.8
09 23.10 С 3 10 км 1/0
[Cs]
+11.9 +7.4 74 +10 +10 1021.2 1018.2
12 23.10 С 5 10 км 1/0
[Ac trans Ci fib]
+14.9 +8.2 64 +14 +17 1021.5 1018.5 +11.7 +14.9
15 23.10 С 3 10 км 6/0
[Ac cast Cs]
+17.4 +8.3 55 +17 +28 1020.0 1017.0

 

Местоположение метеостанции Buenos Aires (Аргентина): широта -34.58 долгота -58.48 высота над уровнем моря 25 м.

В архиве по умолчанию представлена погода в Buenos Aires за последнюю неделю. Архивные данные за месяц целиком и за предыдущие месяцы, начиная с января 2011 года, Вы можете получить, выбрав интересующий диапазон дат из раскрывающегося списка и нажав кнопку "Ввод!".

Внимание! Время в таблицах - всемирное. Для получения местного времени необходимо прибавить поправку, которая в Buenos Aires равна -3 ч.

Смотрите также архив погоды в соседних городах и на ближайших метеорологических станциях:

Погода в Buenos Aires Aeropuerto (Аргентина) (7 км)
Погода в Ezeiza (Аргентина) (26 км)
Погода в Colonia (Уругвай) (61 км)
Погода в La Plata (Аргентина) (68 км)
Погода в Mercedes (Уругвай) (153 км)
Погода в Las Flores (Аргентина) (175 км)
Погода в Gualeguaychu (Аргентина) (176 км)
Погода в Melilla (Уругвай) (205 км)
Погода в Dolores (Аргентина) (205 км)
Погода в Prado (Уругвай) (211 км)

Пояснения к столбцам:

Ветер - указаны скорость ветра в м/с - средняя за 10 мин, порывы в срок и между сроками (в фигурных скобках) и направление, откуда дует ветер: С - северный, СВ - северо-восточный, В - восточный, ЮВ - юго-восточный, Ю - южный, ЮЗ - юго-западный, З - западный, СЗ - северо-западный.
Видимость - горизонтальная дальность видимости в метрах или километрах. При видимости от 1 до 10 км при отсутствии осадков обычно наблюдается дымка, при ухудшении видимости до 1 км и менее - туман. В сухую погоду видимость может ухудшаться дымом, пылью или мглою.
Явления - указаны атмосферные явления, наблюдавшиеся в срок или в последний час перед сроком; фигурными скобками обозначены явления, наблюдавшиеся между сроками (за 1-3 часа до срока); квадратными скобками обозначены град или гололедные отложения с указанием их диаметра в мм.
Облачность - указаны через наклонную черту общая и нижняя облачность в баллах и высота нижней границы облаков в метрах; квадратными скобками обозначены формы облаков: Ci - перистые, Cs - перисто-слоистые, Cc - перисто-кучевые, Ac - высококучевые, As - высокослоистые, Sc - слоисто-кучевые, Ns - слоисто-дождевые, Cu - кучевые, Cb - кучево-дождевые. Подробнее классификацию облаков см. в Атласе облаков (PDF).
T - Температура воздуха - температура, измеренная на высоте 2 м над землей.
Td - Температура точки росы - температура, при понижении до которой содержащийся в воздухе водяной пар достигнет насыщения.
f - Относительная влажность воздуха - влажноcть воздуха, измеренная на высоте 2 м над землей.
Te - Эффективная температура - температура, которую ощущает одетый по сезону человек в тени. Характеристика душности погоды. При расчете учитывается влияние влажности воздуха и скорости ветра на теплоощущения человека.
Tes - Эффективная температура на солнце - температура, которую ощущает человек, с поправкой на солнечный нагрев. Характеристика знойности погоды. Зависит от высоты солнца над горизонтом, облачности и скорости ветра. Ночью, в пасмурную погоду, а также при ветре 12 м/с и более поправка равна нулю.
P - Атмосферное давление - приведенное к уровню моря атмосферное давление.
Po - Атмосферное давление - измеренное на уровне метеостанции атмосферное давление.
Tmin - Минимальная температура - минимум температуры воздуха на высоте 2 м над землей.
Tmax - Максимальная температура - максимум температуры воздуха на высоте 2 м над землей.
R - Количество осадков - Количество выпавших осадков за период времени, мм. При наведении курсора мыши на число - период времени, за который выпало указанное количество осадков.
R24 - Количество осадков - Количество выпавших осадков за 24 часа, мм.
S - Снежный покров - Высота снежного покрова, см. При наведении курсора мыши на число - состояние снежного покрова и степень покрытия местности в баллах.